E1763 Weather Reports


time (UTC)temp
C
wind
direction
speed
KPH
gust
KPH
rain 1hr
cm
rain 24hr
cm
rain mn
cm
humidity
%
barometer
mb
20260903093025 15 182 1.6 8.0 0.08 0.41 0.28 95 1008.7
20260903091528 15 158 0.0 0.0 0.10 0.38 0.25 95 1008.9
20260903090020 15 177 0.0 0.0 0.13 0.38 0.25 95 1009.1
20260903084518 15 172 0.0 0.0 0.13 0.36 0.23 94 1009.1
20260903083018 15 189 0.0 1.6 0.10 0.33 0.20 94 1009.2
20260903081517 15 149 0.0 0.0 0.10 0.28 0.15 94 1009.3
20260903080016 15 180 0.0 1.6 0.13 0.25 0.13 94 1009.3
20260903074511 15 178 0.0 0.0 0.13 0.23 0.10 94 1009.4
20260903073013 14 158 0.0 0.0 0.13 0.23 0.10 93 1009.5
20260903071509 14 178 0.0 0.0 0.10 0.18 0.05 93 1009.5
20260903070006 15 163 0.0 0.0 0.08 0.13 0.00 92 1009.6
20260903064505 15 198 0.0 0.0 0.05 0.10 0.10 92 1009.6
20260903063009 14 163 0.0 0.0 0.08 0.10 0.10 92 1009.7
20260903061507 14 113 0.0 0.0 0.05 0.08 0.08 91 1009.8
20260903060003 15 163 0.0 0.0 0.03 0.05 0.05 90 1010.0
20260903054503 15 178 0.0 0.0 0.03 0.08 0.05 88 1010.3
20260903053002 15 196 0.0 0.0 0.00 0.05 0.03 86 1010.4
20260903051502 16 188 0.0 1.6 0.00 0.05 0.03 82 1010.4
20260903050001 16 186 0.0 0.0 0.00 0.05 0.03 81 1010.4
20260903044602 16 180 0.0 0.0 0.00 0.05 0.03 81 1010.4
20260903043207 16 204 0.0 0.0 0.00 0.05 0.03 81 1010.3
20260903041606 16 202 0.0 0.0 0.00 0.05 0.03 83 1010.3
20260903034558 16 206 0.0 0.0 0.00 0.05 0.03 82 1010.1
20260903033059 16 204 0.0 0.0 0.00 0.05 0.03 82 1010.0
20260903031559 16 223 0.0 0.0 0.00 0.05 0.03 81 1010.0
20260903030057 16 195 0.0 0.0 0.00 0.05 0.03 81 1010.0
20260903024559 16 213 0.0 0.0 0.00 0.05 0.03 80 1010.1
20260903023056 16 259 0.0 1.6 0.00 0.05 0.03 79 1010.2
20260903021556 17 193 0.0 0.0 0.00 0.05 0.03 78 1010.2
20260903020054 17 215 0.0 0.0 0.00 0.05 0.03 77 1010.3
20260903014555 17 213 0.0 0.0 0.00 0.05 0.03 75 1010.4
20260903013105 17 214 0.0 0.0 0.00 0.05 0.03 73 1010.4
20260903011552 17 190 0.0 0.0 0.00 0.05 0.03 73 1010.3
20260903010053 18 200 0.0 0.0 0.00 0.05 0.03 72 1010.5
20260903004553 18 210 0.0 0.0 0.00 0.05 0.03 70 1010.6
20260903003055 18 196 0.0 0.0 0.00 0.05 0.03 69 1010.5
20260903001551 18 233 0.0 0.0 0.00 0.05 0.03 69 1010.4
20260903000050 18 215 0.0 0.0 0.00 0.05 0.03 68 1010.4
20260902234607 18 209 0.0 0.0 0.00 0.05 0.03 66 1010.5
20260902233049 20 202 0.0 0.0 0.00 0.05 0.03 63 1010.6
20260902231552 20 220 0.0 0.0 0.00 0.05 0.03 61 1010.6
20260902230048 21 238 0.0 0.0 0.00 0.05 0.03 63 1010.7
20260902224605 21 223 0.0 0.0 0.00 0.05 0.03 62 1010.8
20260902223143 21 224 0.0 0.0 0.00 0.05 0.03 61 1010.8
20260902221542 21 188 0.0 0.0 0.00 0.05 0.03 66 1011.1
20260902220046 21 215 0.0 0.0 0.00 0.05 0.03 67 1011.2
20260902214540 21 170 0.0 0.0 0.00 0.05 0.03 67 1011.3
20260902213040 21 219 0.0 0.0 0.00 0.05 0.03 67 1011.3
20260902211540 21 218 0.0 0.0 0.00 0.05 0.03 66 1011.2
20260902210037 20 213 0.0 0.0 0.00 0.05 0.03 68 1011.2
20260902204540 20 223 0.0 0.0 0.00 0.05 0.03 69 1011.2
20260902203037 20 186 0.0 0.0 0.00 0.05 0.03 70 1011.3
20260902201547 20 220 0.0 0.0 0.00 0.05 0.03 70 1011.3
20260902200050 20 246 0.0 0.0 0.00 0.05 0.03 72 1011.3
20260902194535 20 209 0.0 0.0 0.00 0.05 0.03 72 1011.4
20260902193035 20 250 0.0 0.0 0.00 0.05 0.03 71 1011.4
20260902191535 21 256 0.0 0.0 0.00 0.05 0.03 70 1011.4
20260902190045 19 200 0.0 0.0 0.00 0.05 0.03 76 1011.6
20260902184531 18 245 0.0 0.0 0.00 0.13 0.03 75 1011.7
20260902183023 18 248 0.0 0.0 0.00 0.13 0.03 79 1011.7
20260902181520 18 209 0.0 3.2 0.00 0.13 0.03 82 1011.7
20260902180018 18 238 0.0 0.0 0.00 0.13 0.03 83 1011.7
20260902174517 18 131 0.0 0.0 0.00 0.23 0.03 86 1011.6
20260902173012 16 221 0.0 0.0 0.00 0.23 0.03 91 1011.6
20260902171509 16 197 0.0 8.0 0.00 0.23 0.03 93 1011.2
20260902170008 15 231 0.0 0.0 0.00 0.23 0.03 93 1011.2
20260902164511 15 169 0.0 0.0 0.00 0.25 0.03 94 1011.2
20260902163005 15 189 0.0 0.0 0.00 0.25 0.03 95 1011.2
20260902161507 15 206 0.0 0.0 0.00 0.25 0.03 95 1011.1
20260902160001 15 180 0.0 0.0 0.00 0.25 0.03 95 1011.0
20260902154603 15 180 0.0 0.0 0.00 0.41 0.03 95 1010.8
20260902153057 15 180 0.0 0.0 0.00 0.41 0.03 95 1010.6
20260902151557 15 180 0.0 0.0 0.00 0.41 0.03 95 1010.5
20260902150053 14 176 0.0 0.0 0.00 0.41 0.03 95 1010.3
20260902144551 14 192 0.0 4.8 0.00 0.53 0.03 95 1010.3
20260902143050 13 167 0.0 0.0 0.00 0.53 0.03 94 1010.3
20260902141649 13 179 0.0 0.0 0.00 0.53 0.03 94 1010.2
20260902140049 14 212 0.0 0.0 0.00 0.53 0.03 94 1010.2
20260902134547 14 188 0.0 0.0 0.00 0.53 0.03 94 1010.0
20260902133047 14 188 0.0 0.0 0.00 0.53 0.03 93 1009.8
20260902131545 14 198 0.0 0.0 0.00 0.53 0.03 93 1009.6
20260902130044 14 215 0.0 0.0 0.00 0.53 0.03 92 1009.4
20260902124556 14 200 0.0 0.0 0.00 0.53 0.03 92 1009.3
20260902123045 14 101 0.0 0.0 0.00 0.53 0.03 92 1009.3
20260902121546 14 81 0.0 0.0 0.00 0.53 0.03 92 1009.0
20260902120041 14 68 0.0 0.0 0.00 0.53 0.03 92 1009.1
20260902114539 14 101 0.0 0.0 8.69 0.00 0.03 92 1009.3
20260902113040 14 69 0.0 0.0 0.00 0.53 0.03 91 1009.3
20260902111548 14 9 0.0 1.6 0.00 0.53 0.03 91 1009.2
20260902110038 13 78 0.0 0.0 0.00 0.53 0.03 91 1009.3
20260902104541 14 24 0.0 0.0 0.00 0.53 0.03 91 1009.4
20260902103034 14 109 0.0 0.0 0.00 0.53 0.03 92 1009.3
20260902101538 13 47 0.0 0.0 0.03 0.53 0.03 92 1009.3
20260902100033 13 107 0.0 0.0 0.03 0.53 0.03 93 1009.3
20260902094526 13 173 0.0 0.0 0.03 0.53 0.03 94 1009.7